Weather Service Report


035 
ASUS44 KOUN 041310
RWROK 

WEATHER ROUNDUP FOR OKLAHOMA
NATIONAL WEATHER SERVICE NORMAN OK
700 AM CST WED MAR 04 2015

NOTE: "FAIR" INDICATES FEW OR NO CLOUDS BELOW 12,000 FEET WITH NO
      SIGNIFICANT WEATHER AND/OR OBSTRUCTIONS TO VISIBILITY.

OKZ001>007-009>012-014-015-017-041400-
NORTHWEST OKLAHOMA AND THE PANHANDLE
  
CITY           SKY/WX    TMP DP  RH WIND       PRES   REMARKS
GAGE           CLOUDY    22  17  81 N21       30.12R HAZE    WCI   6  
GUYMON         CLOUDY    22  15  75 NE14      30.11R WCI   9          
ENID/WOODRING  CLOUDY    27  19  74 N24G31    30.14R WCI  12          
$$

OKZ016-021>023-033>039-044-045-041400-
SOUTHWEST OKLAHOMA
  
CITY           SKY/WX    TMP DP  RH WIND       PRES   REMARKS
LAWTON/REGL    CLOUDY    36  28  73 N18G31    29.99R WCI  26          
LAWTON/FT SILL CLOUDY    35  28  77 NE26G32   29.98R WCI  22          
FREDERICK      CLOUDY    37  30  75 NE16      29.96R WCI  28          
CLINTON        CLOUDY    28  21  75 N28G36    30.05R WCI  13          
HOBART         CLOUDY    31  22  69 NE29G37   30.05R WCI  16          
ALTUS AFB      CLOUDY    34  25  69 N28       30.01R WCI  21          
$$

OKZ018>020-024>031-041400-
CENTRAL OKLAHOMA
  
CITY           SKY/WX    TMP DP  RH WIND       PRES   REMARKS
OKLAHOMA CITY  CLOUDY    34  25  69 N20G28    30.04R WCI  23          
OKC/WILEY POST CLOUDY    32  25  75 N16G31    30.06R WCI  21          
OKC/TINKER AFB DRIZZLE   32  28  84 N20G28    30.03R WCI  20          
STILLWATER     MIX PCPN  28  19  69 N24G31    30.12R WCI  14          
GUTHRIE        CLOUDY    31  23  72 N12G21    30.10R WCI  22          
$$

OKZ008-013-054>072-041400-
NORTHEAST OKLAHOMA
  
CITY           SKY/WX    TMP DP  RH WIND       PRES   REMARKS
TULSA          CLOUDY    32  26  78 N22G29    30.10R WCI  19          
TULSA/JONES    MIX PCPN  32  28  85 N17G26    30.10R WCI  21          
PONCA CITY     CLOUDY    25  16  68 N21G30    30.16R WCI  11          
BARTLESVILLE   CLOUDY    26  17  68 N15G25    30.18R WCI  14          
MUSKOGEE       RAIN      35  33  92 N17       30.06R FOG     WCI  25  
$$

OKZ032-040>043-046>053-073>077-041400-
SOUTH CENTRAL/SOUTHEAST OKLAHOMA
  
CITY           SKY/WX    TMP DP  RH WIND       PRES   REMARKS
ARDMORE/DWNTWN RAIN      41  39  93 NE16      29.97R                  
MCALESTER      LGT RAIN  38  36  92 N17G24    30.02R FOG     WCI  28  
$$


Return to Home page


Western Regional Climate Center, wrcc@dri.edu